Location: Camerons Lookout
(40.9833°S, 175.9333°E)
Time: 18:00:41
(UTC+00:00)

Okean O Rocket - Pass Details

Date: 14 January 2026
Orbit: 614 x 634 km, 98.0° (Epoch: 18 February)

Event Time Altitude Azimuth Distance (km) Brightness Sun altitude
Rises 11:01:12 0° 183° (S) 2,968 6.2 -24.8°
Reaches altitude 10° 11:03:55 10° 200° (SSW) 2,047 5.3 -25.0°
Maximum altitude 11:07:05 19° 245° (WSW) 1,505 4.0 -25.2°
Enters shadow 11:10:06 11° 290° (WNW) 1,985 4.1 -25.4°
